DW7394 Weather Reports


Display with metric or nautical units.
time (UTC)temp
F
wind
direction
speed
MPH
gust
MPH
rain 1hr
in
rain 24hr
in
rain mn
in
humidity
%
barometer
mb
20260503220051 58 236 13.0 27.0 0.00 0.00 0.00 47 1012.5
20260503215548 58 228 14.0 25.0 0.00 0.00 0.00 46 1012.5
20260503215048 58 253 12.0 27.0 0.00 0.00 0.00 46 1012.6
20260503214548 58 207 10.0 29.0 0.00 0.00 0.00 47 1012.5
20260503214049 58 237 13.0 31.0 0.00 0.00 0.00 47 1012.6
20260503213548 58 227 15.0 31.0 0.00 0.00 0.00 47 1012.7
20260503213047 58 216 15.0 26.0 0.00 0.00 0.00 47 1012.6
20260503212547 58 226 14.0 35.0 0.00 0.00 0.00 46 1012.6
20260503212047 58 233 16.0 35.0 0.00 0.00 0.00 46 1012.5
20260503211546 59 214 12.0 31.0 0.00 0.00 0.00 45 1012.6
20260503211049 59 240 18.0 28.0 0.00 0.00 0.00 46 1012.6
20260503210546 59 288 15.0 27.0 0.00 0.00 0.00 45 1012.5
20260503210045 59 224 12.0 28.0 0.00 0.00 0.00 45 1012.5
20260503205545 60 247 18.0 28.0 0.00 0.00 0.00 44 1012.5
20260503205045 60 253 11.0 27.0 0.00 0.00 0.00 45 1012.5
20260503204547 59 216 16.0 27.0 0.00 0.00 0.00 44 1012.5
20260503204044 60 213 11.0 26.0 0.00 0.00 0.00 45 1012.6
20260503203544 59 183 14.0 24.0 0.00 0.00 0.00 44 1012.6
20260503203042 59 205 11.0 28.0 0.00 0.00 0.00 43 1012.5
20260503202542 60 209 17.0 28.0 0.00 0.00 0.00 42 1012.6
20260503202041 60 235 10.0 29.0 0.00 0.00 0.00 43 1012.7
20260503201539 60 264 16.0 29.0 0.00 0.00 0.00 43 1012.8
20260503201040 61 227 16.0 26.0 0.00 0.00 0.00 44 1012.8
20260503200538 60 259 12.0 37.0 0.00 0.00 0.00 46 1012.9
20260503200038 60 254 19.0 37.0 0.00 0.00 0.00 45 1013.1
20260503195537 60 202 19.0 31.0 0.00 0.00 0.00 45 1013.2
20260503195036 60 201 18.0 27.0 0.00 0.00 0.00 47 1013.3
20260503194542 59 242 11.0 29.0 0.00 0.00 0.00 47 1013.3
20260503194035 59 259 8.0 33.0 0.00 0.00 0.00 46 1013.5
20260503193534 59 236 15.0 33.0 0.00 0.00 0.00 45 1013.6
20260503193040 60 213 15.0 31.0 0.00 0.00 0.00 45 1013.5
20260503192532 60 204 18.0 31.0 0.00 0.00 0.00 44 1013.7
20260503192031 60 218 17.0 32.0 0.00 0.00 0.00 44 1013.8
20260503191531 60 188 19.0 32.0 0.00 0.00 0.00 46 1013.8
20260503191033 60 215 17.0 28.0 0.00 0.00 0.00 44 1014.0
20260503190530 61 250 10.0 37.0 0.00 0.00 0.00 44 1013.9
20260503190039 61 252 20.0 37.0 0.00 0.00 0.00 44 1014.0
20260503185529 61 217 8.0 28.0 0.00 0.00 0.00 42 1014.1
20260503185031 62 216 14.0 29.0 0.00 0.00 0.00 44 1014.1
20260503184527 61 235 15.0 29.0 0.00 0.00 0.00 44 1014.2
20260503184026 61 224 11.0 33.0 0.00 0.00 0.00 45 1014.3
20260503183525 61 225 21.0 33.0 0.00 0.00 0.00 45 1014.5
20260503183024 60 222 10.0 31.0 0.00 0.00 0.00 46 1014.4
20260503182531 60 199 13.0 31.0 0.00 0.00 0.00 45 1014.4
20260503182026 60 252 15.0 31.0 0.00 0.00 0.00 46 1014.5
20260503181525 60 231 10.0 30.0 0.00 0.00 0.00 45 1014.5
20260503181023 60 331 10.0 29.0 0.00 0.00 0.00 45 1014.5
20260503180522 61 209 14.0 29.0 0.00 0.00 0.00 47 1014.7
20260503180023 61 228 15.0 28.0 0.00 0.00 0.00 45 1014.7
20260503175521 61 224 13.0 25.0 0.00 0.00 0.00 47 1014.8
20260503175022 61 264 13.0 25.0 0.00 0.00 0.00 49 1015.0
20260503174518 61 211 13.0 29.0 0.00 0.00 0.00 47 1015.0
20260503174018 60 224 17.0 29.0 0.00 0.00 0.00 47 1015.0
20260503173518 60 236 9.0 26.0 0.00 0.00 0.00 48 1015.0
20260503173020 60 230 10.0 22.0 0.00 0.00 0.00 49 1015.1
20260503172514 60 339 9.0 24.0 0.00 0.00 0.00 47 1015.2
20260503172014 60 269 12.0 26.0 0.00 0.00 0.00 49 1015.3
20260503171514 60 325 12.0 26.0 0.00 0.00 0.00 49 1015.4
20260503171113 60 214 11.0 25.0 0.00 0.00 0.00 49 1015.3
20260503170511 60 208 14.0 26.0 0.00 0.00 0.00 50 1015.4
20260503150544 54 217 14.0 25.0 0.00 0.00 0.00 51 1016.4
20260503131013 43 222 9.0 17.0 0.00 0.00 0.00 60 1017.2
20260503130512 43 264 8.0 17.0 0.00 0.00 0.00 61 1017.2
20260503110553 36 222 8.0 13.0 0.00 0.03 0.00 72 1016.7
20260503081545 36 203 6.0 14.0 0.00 0.13 0.00 75 1016.6
20260503081035 36 225 5.0 12.0 0.00 0.13 0.00 75 1016.6
20260503080539 36 233 5.0 11.0 0.00 0.13 0.00 75 1016.6
20260503072530 37 213 5.0 10.0 0.00 0.13 0.00 75 1016.6
20260503072033 37 228 6.0 10.0 0.00 0.13 0.00 75 1016.6
20260503071629 37 245 5.0 11.0 0.00 0.13 0.00 75 1016.6
20260503071028 37 240 6.0 12.0 0.00 0.13 0.00 75 1016.6
20260503070529 37 228 6.0 13.0 0.00 0.13 0.00 76 1016.6
20260503055016 37 182 4.0 7.0 0.00 0.17 0.00 75 1016.8
20260503054527 37 211 4.0 8.0 0.00 0.17 0.00 75 1016.9
20260503054018 37 199 3.0 8.0 0.00 0.17 0.00 75 1016.9
20260503053515 37 194 4.0 8.0 0.00 0.17 0.00 75 1016.9
20260503053014 37 216 4.0 8.0 0.00 0.17 0.00 75 1016.9
20260503052512 37 220 5.0 8.0 0.00 0.17 0.00 74 1016.9
20260503052013 37 239 3.0 8.0 0.00 0.17 0.00 74 1016.9
20260503051511 37 185 4.0 8.0 0.00 0.17 0.00 74 1017.0
20260503051009 37 218 3.0 9.0 0.00 0.17 0.00 74 1017.0
20260503050508 38 240 3.0 9.0 0.00 0.17 0.00 73 1017.0
20260503050007 38 208 3.0 6.0 0.00 0.17 0.00 73 1017.0
20260503045506 38 218 4.0 7.0 0.00 0.24 0.00 73 1017.1
20260503045005 38 192 4.0 7.0 0.00 0.24 0.00 73 1017.1
20260503044511 38 234 3.0 6.0 0.00 0.24 0.00 73 1017.1
20260503044004 38 211 3.0 7.0 0.00 0.24 0.00 72 1017.1
20260503043503 39 218 3.0 9.0 0.00 0.24 0.00 72 1017.1
20260503043002 39 213 5.0 9.0 0.00 0.24 0.00 72 1017.0
20260503042503 39 221 3.0 9.0 0.00 0.24 0.00 71 1017.1
20260503042100 39 196 4.0 8.0 0.00 0.24 0.00 71 1017.1
20260503041600 39 196 4.0 8.0 0.00 0.24 0.00 71 1017.1
20260503041058 39 218 2.0 8.0 0.00 0.24 0.00 71 1017.2
20260503040557 40 201 4.0 7.0 0.00 0.24 0.00 71 1017.2
20260503040100 40 201 4.0 7.0 0.00 0.24 0.00 71 1017.2
20260503035658 40 202 4.0 7.0 0.00 0.26 0.24 71 1017.3
20260503035056 40 210 3.0 7.0 0.00 0.26 0.24 70 1017.2
20260503034609 40 188 3.0 8.0 0.00 0.26 0.24 70 1017.2
20260503034056 40 183 4.0 8.0 0.00 0.26 0.24 70 1017.3
20260503033557 40 173 3.0 8.0 0.00 0.26 0.24 69 1017.3
20260503033058 40 173 4.0 9.0 0.00 0.26 0.24 69 1017.3
20260503032554 40 208 4.0 9.0 0.00 0.26 0.24 69 1017.3
20260503032057 40 192 3.0 7.0 0.00 0.26 0.24 69 1017.4
20260503031556 40 203 4.0 7.0 0.00 0.26 0.24 69 1017.4
20260503031054 40 218 2.0 6.0 0.00 0.26 0.24 69 1017.5
20260503030553 40 210 2.0 5.0 0.00 0.26 0.24 69 1017.5
20260503030053 40 188 2.0 5.0 0.00 0.26 0.24 69 1017.4
20260503025553 40 185 3.0 5.0 0.00 0.26 0.24 69 1017.4
20260503025053 40 188 2.0 5.0 0.00 0.26 0.24 69 1017.5
20260503024554 40 213 2.0 6.0 0.00 0.26 0.24 69 1017.5
20260503024054 40 218 3.0 5.0 0.00 0.26 0.24 69 1017.6
20260503023553 40 223 2.0 4.0 0.00 0.26 0.24 69 1017.6
20260503023053 40 205 2.0 4.0 0.00 0.26 0.24 69 1017.7
20260503022552 40 192 2.0 4.0 0.00 0.26 0.24 68 1017.7
20260503022055 40 205 2.0 3.0 0.00 0.26 0.24 68 1017.7
20260503021552 40 196 2.0 3.0 0.00 0.26 0.24 68 1017.6
20260503021055 40 156 1.0 3.0 0.00 0.26 0.24 68 1017.7
20260503020552 40 181 2.0 3.0 0.00 0.26 0.24 68 1017.6
20260503020055 40 192 1.0 2.0 0.00 0.26 0.24 68 1017.6
20260503015551 40 173 1.0 3.0 0.00 0.26 0.24 68 1017.6
20260503015054 40 196 1.0 3.0 0.00 0.26 0.24 67 1017.6
20260503014604 40 218 1.0 2.0 0.00 0.26 0.24 67 1017.6
20260503014051 40 218 1.0 2.0 0.00 0.26 0.24 67 1017.5
20260503013551 40 188 0.0 2.0 0.00 0.26 0.24 67 1017.6
20260503013051 40 201 1.0 2.0 0.00 0.26 0.24 66 1017.6
20260503012552 40 173 1.0 2.0 0.00 0.26 0.24 66 1017.5
20260503012053 41 112 0.0 2.0 0.00 0.26 0.24 66 1017.5
20260503011551 41 147 0.0 2.0 0.00 0.26 0.24 65 1017.5
20260503011052 41 173 0.0 2.0 0.00 0.26 0.24 65 1017.5
20260503010549 41 147 0.0 2.0 0.00 0.26 0.24 64 1017.5
20260503010051 41 84 0.0 2.0 0.00 0.26 0.24 64 1017.4
20260503005550 41 130 0.0 2.0 0.00 0.26 0.24 64 1017.4
20260503005049 41 309 0.0 2.0 0.00 0.26 0.24 64 1017.5
20260503004549 41 173 0.0 2.0 0.00 0.26 0.24 64 1017.4
20260503004049 41 130 0.0 2.0 0.00 0.26 0.24 64 1017.4
20260503003548 41 41 0.0 3.0 0.00 0.26 0.24 64 1017.4
20260503003055 41 309 1.0 4.0 0.00 0.26 0.24 64 1017.4
20260503002547 41 356 1.0 4.0 0.00 0.26 0.24 64 1017.4
20260503002047 41 335 1.0 3.0 0.00 0.26 0.24 63 1017.4
20260503001606 41 309 1.0 3.0 0.00 0.26 0.24 63 1017.3
20260503001047 41 309 1.0 3.0 0.00 0.26 0.24 63 1017.4
20260503000546 41 326 1.0 3.0 0.00 0.26 0.24 62 1017.4
20260503000050 41 4 1.0 6.0 0.00 0.26 0.24 62 1017.3
20260502235546 42 335 2.0 6.0 0.00 0.26 0.24 62 1017.3
20260502235146 42 343 3.0 4.0 0.00 0.26 0.24 62 1017.3
20260502234549 42 326 1.0 6.0 0.00 0.26 0.24 61 1017.3
20260502234046 42 335 3.0 6.0 0.00 0.26 0.24 60 1017.2
20260502233546 42 15 2.0 6.0 0.00 0.26 0.24 60 1017.2
20260502233045 42 13 2.0 6.0 0.00 0.26 0.24 60 1017.2
20260502232544 42 331 1.0 6.0 0.00 0.26 0.24 60 1017.3
20260502232044 42 15 2.0 6.0 0.00 0.26 0.24 60 1017.3
20260502231545 42 330 3.0 8.0 0.00 0.26 0.24 60 1017.3
20260502231044 42 312 1.0 13.0 0.00 0.26 0.24 59 1017.3
20260502230544 42 329 5.0 13.0 0.00 0.26 0.24 59 1017.4
20260502230044 42 326 3.0 10.0 0.00 0.26 0.24 59 1017.4
20260502225543 42 326 7.0 10.0 0.00 0.26 0.24 59 1017.4
20260502225043 42 306 3.0 11.0 0.00 0.26 0.24 59 1017.4
20260502224543 42 347 4.0 11.0 0.00 0.26 0.24 59 1017.3
20260502224045 42 13 4.0 11.0 0.00 0.26 0.24 59 1017.4
20260502223544 42 336 5.0 10.0 0.00 0.26 0.24 60 1017.4
20260502223043 42 356 5.0 10.0 0.00 0.26 0.24 62 1017.4
20260502222543 42 324 2.0 9.0 0.00 0.26 0.24 63 1017.4
20260502222044 42 344 3.0 8.0 0.00 0.26 0.24 63 1017.4
20260502221545 42 335 1.0 12.0 0.00 0.26 0.24 64 1017.4
20260502221042 42 326 4.0 12.0 0.00 0.26 0.24 64 1017.5
20260502220542 42 356 5.0 11.0 0.00 0.26 0.24 65 1017.5